Weather observations for the past three days for
John Wayne-Orange County Airport
Imperial (Metric)
Date Time (pdt) Wind (mph) Vis. (mi.) Weather Sky Cond. Temperature (ºF) Relative Humidity Wind Chill (°F) Heat Index (°F) Pressure Precipitation (in)
Air Dwpt 6 hour altimeter (in) sea level (mb) 1 hr 3 hr 6 hr
Max. Min.
09 14:53 SW 10 10.00 A Few Clouds FEW020 71.1 57.9 63% 29.89 1012.0
09 13:53 SW 8 10.00 A Few Clouds FEW020 71.1 57.9 63% 29.9 1012.4
09 12:53 SW 9 10.00 A Few Clouds FEW017 71.1 57.9 63% 29.92 1012.9
09 11:53 S 9 10.00 A Few Clouds FEW017 70 57.9 66% 29.93 1013.4
09 10:53 Vrbl 5 10.00 Mostly Cloudy BKN016 66.9 57 66.9 62.1 71% 29.94 1013.7
09 09:53 Calm 9.00 Overcast OVC013 63 57 81% 29.94 1013.7
09 08:53 E 6 10.00 Overcast OVC012 63 55.9 78% 29.94 1013.8
09 07:53 SE 7 10.00 Overcast OVC012 62.1 57 84% 29.94 1013.9
09 06:53 S 7 10.00 Overcast OVC013 62.1 57 84% 29.94 1013.7
09 05:53 SE 7 10.00 Overcast OVC013 62.1 57 84% 29.91 1012.9
09 04:53 SE 5 10.00 Overcast OVC013 63 57.9 63 62.1 84% 29.92 1013.0
09 03:53 Calm 10.00 Overcast OVC013 62.1 57.9 86% 29.92 1013.0
09 02:53 SW 3 10.00 Overcast OVC010 62.1 57.9 86% 29.93 1013.2
09 01:53 S 6 10.00 Overcast OVC010 62.1 57.9 86% 29.94 1013.7
09 00:53 S 5 10.00 Overcast OVC010 62.1 57.9 86% 29.95 1014.0
08 23:53 Vrbl 3 10.00 Overcast OVC010 62.1 57.9 86% 29.96 1014.4
08 22:53 Vrbl 3 10.00 Overcast OVC010 62.1 57.9 69.1 62.1 86% 29.96 1014.6
08 21:53 W 5 10.00 Overcast OVC010 62.1 57.9 86% 29.97 1014.7
08 20:53 SW 5 10.00 Overcast OVC010 62.1 57.9 86% 29.95 1014.1
08 19:53 SW 7 10.00 Mostly Cloudy FEW009 BKN012 BKN020 63 57.9 84% 29.94 1013.7
08 18:53 SW 8 10.00 A Few Clouds FEW023 64.9 57.9 78% 29.93 1013.4
08 17:53 SW 8 10.00 A Few Clouds FEW025 66.9 57.9 73% 29.92 1013.2
08 16:53 SW 10 10.00 A Few Clouds FEW025 69.1 57.9 71.1 64 68% 29.93 1013.3
08 15:53 SW 8 10.00 A Few Clouds FEW020 69.1 57 66% 29.94 1013.8
08 14:53 SW 12 10.00 A Few Clouds FEW020 FEW045 69.1 57 66% 29.96 1014.3
08 13:53 SW 7 10.00 A Few Clouds FEW019 70 57.9 66% 29.97 1014.6
08 12:53 S 6 10.00 Partly Cloudy SCT019 69.1 57.9 68% 29.99 1015.3
08 11:53 SW 5 10.00 Overcast OVC017 66 57.9 75% 30 1015.9
08 10:53 Calm 10.00 Overcast OVC013 64.9 57.9 64.9 61 78% 30.02 1016.4
08 09:53 SE 3 10.00 Overcast OVC013 63 57 81% 30.01 1016.3
08 08:53 SE 5 10.00 Overcast OVC013 62.1 57 84% 30.02 1016.4
08 07:53 E 6 10.00 Overcast OVC011 62.1 57 84% 30.02 1016.5
08 06:53 Calm 10.00 Overcast OVC011 62.1 57 84% 30.01 1016.1
08 05:53 E 5 10.00 Overcast OVC010 62.1 57 84% 30 1015.9
08 04:53 Calm 10.00 Overcast OVC009 61 57 62.1 61 87% 29.99 1015.6
08 03:53 S 6 10.00 Overcast OVC009 61 57 87% 29.99 1015.3
08 02:53 S 5 10.00 Overcast OVC010 62.1 57 84% 29.99 1015.4
08 01:53 SE 6 10.00 Overcast OVC010 62.1 57 84% 30 1015.8
08 00:53 S 7 10.00 Overcast OVC011 62.1 57 84% 30.01 1016.2
07 23:53 E 7 10.00 Overcast OVC012 62.1 57 84% 30.01 1016.1
07 22:53 S 8 10.00 Mostly Cloudy BKN010 62.1 57 68 62.1 84% 30.01 1016.3
07 21:53 SW 7 10.00 Mostly Cloudy BKN011 62.1 57 84% 30.01 1016.1
07 20:53 SW 7 10.00 Partly Cloudy SCT010 62.1 57.9 86% 29.99 1015.5
07 19:53 S 9 10.00 A Few Clouds FEW011 63 57.9 84% 29.97 1014.7
07 18:53 SW 10 10.00 A Few Clouds FEW010 64.9 57 76% 29.95 1014.1
07 17:53 SW 9 10.00 A Few Clouds FEW010 66.9 57 71% 29.95 1014.0
07 16:53 SW 7 10.00 A Few Clouds FEW010 FEW080 68 57 71.1 68 68% 29.95 1014.0
07 15:53 SW 9 10.00 A Few Clouds FEW011 FEW080 70 55.9 61% 29.95 1014.0
07 14:53 S 13 G 20 10.00 A Few Clouds FEW011 FEW100 69.1 57 66% 29.96 1014.6
07 13:53 S 13 10.00 A Few Clouds FEW013 FEW110 69.1 57 66% 29.98 1015.0
07 12:53 S 13 10.00 A Few Clouds FEW012 68 57 68% 29.99 1015.4
07 11:53 S 12 10.00 A Few Clouds FEW012 69.1 57 66% 30 1015.9
07 10:53 S 8 10.00 A Few Clouds FEW012 68 55.9 68 59 65% 30.01 1016.2
07 09:53 S 6 10.00 A Few Clouds FEW012 66.9 55 66% 30.02 1016.3
07 08:53 Calm 10.00 Partly Cloudy SCT012 63 55.9 78% 30.02 1016.7
07 07:53 SW 3 10.00 Mostly Cloudy BKN010 61 57 87% 30.03 1016.8
07 06:53 Calm 10.00 Partly Cloudy SCT015 60.1 55.9 86% 30.01 1016.2
07 05:53 Calm 10.00 Fair CLR 59 55 87% 30 1015.8
07 04:53 Calm 10.00 Fair CLR 60.1 54 62.1 60.1 80% 30 1015.8
07 03:53 Calm 10.00 Fair CLR 61 54 78% 30.01 1015.9
07 02:53 Calm 10.00 Fair CLR 61 54 78% 30.01 1016.2
07 01:53 Calm 10.00 Fair CLR 62.1 54 75% 30.03 1016.7
07 00:53 Calm 10.00 Fair CLR 62.1 55.9 80% 30.04 1017.1
06 23:53 SW 3 10.00 Fair CLR 62.1 55.9 80% 30.04 1017.3
06 21:53 SW 5 10.00 Fair CLR 64 55 73% 30.04 1017.3
06 20:53 SW 5 10.00 Fair CLR 64 54 70% 30.03 1017.0
06 19:53 W 5 10.00 Fair CLR 64.9 53.1 66% 30.02 1016.4
06 18:53 SW 6 10.00 Fair CLR 66 55 68% 30.01 1016.0
06 17:53 SW 9 10.00 Fair CLR 68 54 61% 30 1015.9
06 16:53 SW 8 10.00 A Few Clouds FEW026 69.1 52 71.1 66 55% 29.99 1015.6
06 15:53 Vrbl 7 10.00 A Few Clouds FEW027 70 50 49% 30 1015.8
Date Time (pdt) Wind (mph) Vis. (mi.) Weather Sky Cond. Air Dwpt Max. Min. Relative Humidity Wind Chill (°F) Heat Index (°F) altimeter (in) sea level (mb) 1 hr 3 hr 6 hr
6 hour
Temperature (ºF) Pressure Precipitation (in)